Date,TemperatureHighF,TemperatureAvgF,TemperatureLowF,DewpointHighF,DewpointAvgF,DewpointLowF,HumidityHigh,HumidityAvg,HumidityLow,PressureMaxIn,PressureMinIn,WindSpeedMaxMPH,WindSpeedAvgMPH,GustSpeedMaxMPH,PrecipitationSumIn
2013-1-1,25,18,16,20,15,13,92,90,78,30.70,30.57,7,1,11,0.00
2013-1-2,18,16,14,16,14,12,93,91,90,30.69,30.58,1,0,1,0.00
2013-1-3,23,17,12,16,13,9,93,86,71,30.58,30.41,2,0,3,0.00
2013-1-4,42,26,20,25,18,13,83,71,51,30.53,30.38,12,3,13,0.02
2013-1-5,27,23,18,25,20,16,93,91,82,30.40,30.30,0,0,0,0.00
2013-1-6,42,32,24,31,26,21,90,79,63,30.32,30.15,7,2,9,0.05
2013-1-7,50,43,35,39,34,27,82,69,57,30.16,30.05,21,7,27,0.02
2013-1-8,55,46,41,40,36,33,78,70,55,30.17,29.94,16,3,21,0.00
2013-1-9,50,43,35,35,32,26,75,65,47,29.96,29.70,20,8,28,0.00
2013-1-10,35,29,23,29,23,18,91,78,62,30.08,30.00,4,0,12,0.01
2013-1-11,30,24,16,22,18,12,86,77,62,30.34,30.08,6,1,12,0.00
2013-1-12,28,18,10,18,12,7,86,78,60,30.47,30.34,7,1,10,0.00
2013-1-13,30,18,6,17,10,3,85,74,49,30.56,30.46,3,0,5,0.00
2013-1-14,41,26,13,26,15,7,81,66,39,30.58,30.46,9,3,13,0.00
2013-1-15,49,32,19,28,21,14,86,66,42,30.69,30.56,9,2,11,0.00
2013-1-16,55,37,25,26,21,17,75,56,30,30.67,30.52,7,2,13,0.00
2013-1-17,52,38,27,24,21,18,69,51,31,30.53,30.40,12,5,16,0.00
2013-1-18,48,37,29,23,19,16,61,50,34,30.43,30.34,14,7,18,0.00
2013-1-19,58,38,27,28,21,17,67,53,24,30.44,30.35,12,4,14,0.00
2013-1-20,44,32,23,26,21,16,87,65,40,30.49,30.39,8,2,8,0.00
2013-1-21,49,28,19,26,20,14,89,72,31,30.41,30.27,11,2,14,0.00
2013-1-22,25,20,16,23,18,14,93,92,90,30.32,30.21,6,1,9,0.00
2013-1-23,37,27,22,31,25,21,94,91,79,30.24,30.00,8,2,11,0.00
2013-1-24,54,39,30,39,33,28,94,82,53,30.27,30.14,5,0,7,0.00
2013-1-25,48,44,39,43,40,37,95,85,77,30.17,29.92,6,1,13,0.09
2013-1-26,44,37,31,37,28,24,92,69,51,30.06,29.91,13,2,19,0.05
2013-1-27,40,33,27,28,26,23,86,73,53,30.13,30.05,10,2,13,0.01
2013-1-28,38,35,32,32,29,27,88,78,71,30.15,30.06,14,4,20,0.00
2013-1-29,45,40,37,34,32,31,79,73,65,30.41,30.14,15,7,24,0.00
2013-1-30,48,44,39,36,34,30,80,70,63,30.43,30.38,11,4,17,0.00
2013-1-31,49,40,31,37,33,29,93,78,59,30.40,30.31,3,0,6,0.00
2013-2-1,53,38,27,38,32,25,93,80,51,30.45,30.34,6,1,7,0.00
2013-2-2,44,34,24,35,30,22,94,83,69,30.47,30.33,6,1,7,0.00
2013-2-3,57,43,32,35,30,26,87,62,31,30.34,30.15,9,3,11,0.00
2013-2-4,54,43,34,36,31,28,79,63,42,30.17,30.00,6,0,6,0.00
2013-2-5,48,42,36,33,30,28,71,62,48,30.05,29.92,15,7,22,0.00
2013-2-6,48,40,33,30,28,26,80,63,44,30.12,29.90,7,1,9,0.00
2013-2-7,44,36,29,29,26,20,85,67,42,30.10,29.90,8,1,10,0.00
2013-2-8,41,32,21,27,22,18,94,71,44,30.23,30.10,5,1,8,0.00
2013-2-9,44,32,19,31,25,16,86,75,58,30.29,30.19,6,0,9,0.00
2013-2-10,45,34,23,31,25,21,93,71,45,30.35,30.26,6,0,8,0.00
2013-2-11,49,34,20,34,26,17,89,73,50,30.38,30.25,11,1,14,0.00
2013-2-12,50,39,30,36,31,27,89,74,53,30.45,30.38,13,2,18,0.00
2013-2-13,47,39,33,35,32,28,89,76,60,30.48,30.40,9,1,14,0.00
2013-2-14,55,42,26,39,34,24,94,75,50,30.57,30.47,7,1,8,0.00
2013-2-15,52,40,28,40,34,26,95,81,63,30.54,30.28,7,1,11,0.01
2013-2-16,52,39,31,38,31,25,90,72,47,30.28,30.16,12,4,17,0.00
2013-2-17,45,35,26,26,24,21,83,67,40,30.23,30.10,8,2,11,0.00
2013-2-18,40,32,25,29,25,22,88,73,56,30.10,29.78,4,0,8,0.00
2013-2-19,43,31,20,27,23,17,91,73,51,29.83,29.73,6,2,9,0.00
2013-2-20,44,38,30,28,26,23,84,62,45,30.09,30.01,16,3,16,0.00
2013-2-21,40,35,28,28,26,23,86,70,59,30.19,30.09,15,5,19,0.00
2013-2-22,49,39,30,35,30,25,92,70,53,30.19,29.86,23,5,27,0.00
2013-2-23,41,33,27,28,24,21,86,69,51,30.41,30.02,13,4,19,0.00
2013-2-24,48,34,22,27,24,18,86,66,40,30.45,30.12,4,1,7,0.00
2013-2-25,42,36,28,34,27,21,85,72,54,30.35,30.04,18,5,29,0.01
2013-2-26,50,37,23,25,19,10,85,54,21,30.41,30.26,3,0,11,0.00
2013-2-27,51,42,30,35,28,19,69,56,39,30.34,30.27,3,0,10,0.00
2013-2-28,54,46,42,41,36,31,73,69,61,30.33,30.24,12,2,21,0.00
2013-3-1,64,53,40,39,37,33,84,57,35,30.45,30.28,7,1,18,0.00
2013-3-2,58,46,37,39,35,31,80,68,43,30.28,30.09,11,4,16,0.00
2013-3-3,45,37,26,35,21,8,78,56,23,30.25,30.09,10,2,10,0.00
2013-3-4,47,33,17,24,20,14,87,61,37,30.28,30.01,9,2,12,0.00
2013-3-5,41,34,27,31,25,20,92,70,56,30.02,29.71,8,2,15,0.00
2013-3-6,40,34,31,37,30,25,97,86,65,30.00,29.56,17,2,24,0.07
2013-3-7,48,37,24,31,26,20,87,68,40,30.09,29.99,5,1,15,0.02
2013-3-8,48,37,28,33,28,23,92,70,44,30.22,30.03,8,1,12,0.00
2013-3-9,55,40,21,28,22,17,87,54,26,30.49,30.22,3,0,9,0.00
2013-3-10,61,43,25,40,28,19,79,59,27,30.50,30.35,13,3,17,0.00
2013-3-11,55,47,38,42,39,34,89,76,61,30.39,30.22,10,1,13,0.00
2013-3-12,64,49,35,42,36,24,93,66,25,30.24,30.10,10,2,13,0.00
2013-3-13,68,52,41,41,36,33,75,56,32,30.19,30.09,6,0,6,0.00
2013-3-14,68,52,41,39,34,24,78,53,25,30.16,30.01,15,4,21,0.00
2013-3-15,59,49,38,41,36,30,83,63,33,30.18,30.11,9,2,12,0.00
2013-3-16,52,41,31,37,32,28,91,71,45,30.12,29.93,21,6,29,0.01
2013-3-17,42,36,31,29,24,19,79,62,46,30.24,30.04,15,6,23,0.00
2013-3-18,52,39,25,28,25,19,82,59,27,30.27,30.16,7,1,13,0.00
2013-3-19,46,37,29,35,28,23,89,69,47,30.20,29.79,6,1,9,0.05
2013-3-20,53,46,37,43,38,30,93,75,55,29.89,29.60,21,8,26,0.09
2013-3-21,42,36,29,29,25,23,84,65,50,30.25,30.18,17,7,25,0.00
2013-3-22,42,32,25,25,21,14,88,64,37,30.38,30.24,12,3,22,0.00
2013-3-23,44,34,25,26,22,16,84,61,37,30.38,30.26,4,1,9,0.00
2013-3-24,46,36,25,28,24,19,79,61,46,30.30,30.15,8,2,11,0.00
2013-3-25,50,41,31,32,28,24,79,60,50,30.16,29.94,10,2,12,0.00
2013-3-26,51,44,38,39,36,29,86,72,58,30.00,29.93,6,1,8,0.00
2013-3-27,58,45,32,44,38,30,95,79,50,30.00,29.90,9,1,13,0.01
2013-3-28,58,48,39,45,42,38,95,81,51,30.11,29.99,10,1,12,0.03
2013-3-29,66,52,42,47,44,41,95,75,45,30.20,30.11,6,1,9,0.06
2013-3-30,68,52,34,48,42,33,95,71,45,30.21,30.03,8,3,12,0.00
2013-3-31,67,53,36,44,40,34,93,63,39,30.05,29.86,11,3,18,0.00
2013-4-1,64,52,38,46,42,36,96,72,46,30.10,29.92,11,2,14,0.00
2013-4-2,67,50,37,43,39,34,92,69,40,30.16,30.07,12,2,18,0.00
2013-4-3,67,52,34,42,36,32,94,60,29,30.15,29.93,6,1,10,0.00
2013-4-4,66,52,42,46,42,40,90,69,41,29.93,29.64,22,4,26,0.04
2013-4-5,57,48,40,42,39,37,92,73,48,29.95,29.86,14,3,15,0.04
2013-4-6,54,47,42,41,37,35,82,69,50,29.97,29.75,18,7,28,0.03
2013-4-7,48,43,33,39,33,27,82,69,47,29.87,29.62,26,8,39,0.05
2013-4-8,50,39,29,30,28,25,86,65,45,30.27,29.87,8,2,14,0.00
2013-4-9,59,44,26,36,30,23,90,62,29,30.37,30.26,4,0,7,0.00
2013-4-10,61,50,42,45,36,31,72,60,36,30.27,30.06,23,6,26,0.00
2013-4-11,54,44,32,33,30,27,85,58,42,30.25,30.13,10,2,19,0.00
2013-4-12,63,44,27,37,28,14,88,60,15,30.16,29.77,22,6,27,0.00
2013-4-13,47,41,34,34,25,18,69,52,35,30.05,29.77,22,9,32,0.00
2013-4-14,48,36,27,32,26,20,94,68,38,30.06,29.89,9,1,13,0.00
2013-4-15,42,35,32,35,32,29,96,87,68,30.16,29.91,10,2,15,0.12
2013-4-16,46,37,30,35,29,24,95,74,42,30.40,30.16,7,2,15,0.01
2013-4-17,52,40,26,30,26,16,91,62,29,30.50,30.40,6,1,13,0.00
2013-4-18,61,48,34,41,35,28,81,62,45,30.44,30.27,8,2,12,0.00
2013-4-19,57,51,43,42,39,35,75,65,48,30.27,30.10,16,6,24,0.01
2013-4-20,60,48,36,36,34,32,85,61,37,30.25,30.16,14,4,17,0.00
2013-4-21,59,47,32,41,36,29,89,68,48,30.22,30.14,14,5,23,0.00
2013-4-22,53,44,35,36,28,18,87,55,28,30.42,30.22,10,3,18,0.00
2013-4-23,62,45,22,24,17,6,74,39,11,30.42,30.14,15,3,22,0.00
2013-4-24,72,55,36,27,21,18,51,28,13,30.32,30.01,3,1,7,0.00
2013-4-25,73,55,35,38,30,22,60,40,22,30.11,29.99,13,3,16,0.00
2013-4-26,78,60,37,41,34,26,77,42,15,30.20,30.11,8,1,11,0.00
2013-4-27,73,60,44,37,33,27,66,40,20,30.20,30.07,18,6,22,0.00
2013-4-28,64,55,47,39,34,29,64,46,28,30.14,30.02,17,7,25,0.00
2013-4-29,55,50,38,41,33,23,69,52,33,30.06,29.93,22,12,30,0.00
2013-4-30,51,40,26,25,23,20,81,53,31,30.42,30.06,14,3,22,0.00
2013-5-1,60,46,24,28,24,17,81,47,21,30.56,30.42,7,2,14,0.00
2013-5-2,72,57,34,32,26,14,63,34,11,30.54,30.22,10,3,14,0.00
2013-5-3,70,58,39,37,32,27,62,39,25,30.24,30.12,10,3,17,0.00
2013-5-4,70,58,40,38,33,29,69,42,23,30.14,29.90,26,10,37,0.00
2013-5-5,73,62,48,38,35,32,55,38,26,29.90,29.71,17,8,22,0.00
2013-5-6,81,66,46,44,38,33,67,38,20,29.81,29.67,15,4,23,0.00
2013-5-7,81,65,50,48,43,34,80,49,22,29.88,29.73,11,2,18,0.00
2013-5-8,82,65,46,52,45,30,85,54,15,29.99,29.88,12,2,16,0.02
2013-5-9,84,67,48,51,46,36,88,53,18,30.06,29.96,12,2,16,0.00
2013-5-10,89,69,50,53,47,41,79,49,20,30.11,30.00,9,2,20,0.00
2013-5-11,90,72,53,55,51,47,82,50,24,30.10,29.91,10,1,21,0.00
2013-5-12,82,70,57,53,49,44,81,51,27,29.97,29.88,17,3,24,0.00
2013-5-13,67,58,49,50,44,36,87,61,39,30.10,29.92,24,7,31,0.00
2013-5-14,67,55,39,40,37,33,85,54,32,30.13,30.00,7,2,12,0.00
2013-5-15,64,52,40,48,39,34,81,62,38,30.05,29.94,14,2,18,0.01
2013-5-16,65,56,48,48,44,40,92,67,42,29.99,29.84,15,2,19,0.08
2013-5-17,62,52,46,45,40,35,93,66,39,30.04,29.91,14,3,18,0.01
2013-5-18,61,49,36,44,38,33,89,68,48,30.22,30.04,14,3,17,0.01
2013-5-19,66,52,36,43,38,33,89,62,38,30.32,30.23,13,3,18,0.00
2013-5-20,77,58,33,45,36,30,90,50,20,30.29,29.83,10,2,13,0.00
2013-5-21,58,49,37,39,33,27,72,56,37,29.90,29.67,25,10,28,0.00
2013-5-22,48,42,32,34,29,24,73,61,52,29.98,29.90,16,5,18,0.00
2013-5-23,59,47,32,38,31,26,86,57,29,30.01,29.93,13,2,19,0.02
2013-5-24,60,49,39,38,34,29,91,61,33,30.03,29.95,15,4,19,0.00
2013-5-25,67,51,32,46,37,28,89,62,31,30.04,29.90,7,1,9,0.04
2013-5-26,65,54,44,48,43,36,96,70,37,29.99,29.91,16,5,22,0.07
2013-5-27,63,50,41,50,44,37,90,79,54,29.97,29.75,16,2,18,0.18
2013-5-28,65,56,47,44,40,37,78,57,37,29.86,29.70,18,6,21,0.00
2013-5-29,60,52,46,46,42,36,95,70,46,29.98,29.63,25,8,29,0.17
2013-5-30,64,51,38,40,36,29,82,57,32,30.18,29.98,10,3,13,0.00
2013-5-31,69,55,33,41,37,31,91,55,30,30.28,30.16,8,3,13,0.00
2013-6-1,76,61,42,49,42,28,84,52,21,30.19,29.93,10,3,17,0.00
2013-6-3,76,68,51,44,37,28,68,34,19,30.03,29.92,11,4,15,0.00
2013-6-4,79,64,42,44,37,28,70,39,19,30.05,29.94,10,3,13,0.00
2013-6-5,86,70,49,52,44,38,68,41,21,30.01,29.84,8,3,11,0.00
2013-6-6,86,71,52,52,47,44,77,46,23,29.92,29.80,11,3,15,0.00
2013-6-7,86,70,53,51,48,44,76,47,27,29.97,29.87,13,3,21,0.00
2013-6-8,86,69,48,48,43,28,86,45,15,30.00,29.89,13,2,17,0.00
2013-6-9,82,67,53,49,42,34,68,42,20,29.93,29.77,12,4,18,0.00
2013-6-10,78,61,39,41,36,31,78,43,19,29.84,29.69,10,3,15,0.00
2013-6-11,65,55,45,41,36,32,75,51,32,30.06,29.81,19,8,24,0.00
2013-6-12,63,51,36,39,37,32,85,60,38,30.09,30.03,9,2,13,0.00
2013-6-13,62,55,46,42,38,37,81,55,40,30.23,30.11,20,9,24,0.01
2013-6-14,75,58,37,42,36,30,88,50,20,30.24,29.95,9,2,11,0.00
2013-6-15,82,65,42,48,40,33,78,43,18,29.95,29.78,8,2,12,0.00
2013-6-16,81,66,50,52,46,42,76,51,28,30.00,29.85,15,2,19,0.00
2013-6-17,79,64,47,52,47,43,88,56,32,30.00,29.80,12,2,18,0.01
2013-6-18,62,56,49,50,45,37,83,67,43,29.89,29.81,11,2,13,0.01
2013-6-19,64,54,48,41,39,37,73,58,40,30.03,29.86,21,9,28,0.00
2013-6-20,67,54,39,41,37,34,82,55,30,30.08,29.98,13,5,19,0.00
2013-6-21,61,54,44,44,42,37,86,65,47,30.11,30.06,6,1,12,0.01
2013-6-22,80,62,39,44,41,36,91,52,25,30.10,29.82,9,1,16,0.00
2013-6-23,66,62,60,49,46,43,66,55,43,29.82,29.71,2,0,2,0.00
2013-6-24,65,59,50,51,49,46,90,70,54,29.69,29.65,2,0,5,0.09
2013-6-25,68,59,53,55,51,49,93,75,56,29.84,29.66,6,0,8,0.07
2013-6-26,70,61,53,56,53,50,90,76,54,30.02,29.84,7,1,9,0.02
2013-6-27,84,69,50,58,55,48,95,65,39,30.09,30.01,11,3,16,0.00
2013-6-28,91,75,56,63,58,53,93,59,30,30.11,29.90,10,3,15,0.00
2013-6-29,88,77,64,63,59,55,83,56,35,29.95,29.84,10,4,13,0.00
2013-6-30,95,79,58,61,57,53,83,50,28,29.92,29.73,16,5,19,0.00
2013-7-1,97,85,74,66,59,55,65,43,26,29.85,29.75,10,3,11,0.00
2013-7-2,103,83,64,66,60,50,85,51,18,29.91,29.80,14,4,18,0.00
2013-7-3,90,77,62,60,52,36,77,45,22,29.93,29.82,12,3,17,0.00
2013-7-4,83,71,53,45,40,35,59,34,20,29.91,29.80,14,4,21,0.00
2013-7-8,86,80,68,50,42,37,48,28,19,29.95,29.87,8,4,11,0.00
2013-7-9,94,76,54,54,47,44,72,40,20,29.99,29.82,9,2,12,0.00
2013-7-10,93,76,58,54,48,39,72,41,17,29.90,29.71,16,4,18,0.00
2013-7-11,81,72,59,48,41,30,61,34,21,29.84,29.75,12,4,18,0.00
2013-7-12,80,64,46,43,34,29,60,36,17,29.98,29.82,14,3,17,0.00
2013-7-13,79,64,42,43,37,27,83,43,16,30.07,29.95,11,2,16,0.01
2013-7-14,89,71,48,47,35,24,54,29,16,30.05,29.83,9,2,13,0.00
2013-7-15,87,72,54,43,40,37,63,34,18,29.89,29.71,14,5,17,0.00
2013-7-16,85,73,62,52,42,37,52,33,23,29.83,29.72,10,4,16,0.00
2013-7-17,91,75,55,50,42,33,63,35,15,30.00,29.83,12,3,20,0.00
2013-7-18,92,76,52,49,42,33,70,35,14,30.04,29.87,12,3,16,0.00
2013-7-19,94,77,53,43,34,18,68,25,8,29.98,29.82,10,3,13,0.00
2013-7-20,95,76,54,44,27,13,65,21,6,29.88,29.75,11,3,15,0.00
2013-7-21,94,75,50,47,32,14,59,24,6,29.81,29.71,11,2,14,0.00
2013-7-22,94,76,54,42,38,29,61,29,12,29.86,29.78,10,2,14,0.00
2013-7-23,96,77,54,47,35,16,52,25,7,29.91,29.78,8,2,12,0.00
2013-7-24,95,79,60,47,36,19,46,24,7,29.90,29.81,8,2,11,0.00
2013-7-25,96,79,55,47,37,21,59,27,9,29.94,29.85,12,4,20,0.00
2013-7-26,96,79,61,36,28,5,32,17,4,29.97,29.86,13,4,18,0.00
2013-7-27,86,72,52,42,35,24,50,28,11,29.98,29.81,14,3,19,0.00
2013-7-28,84,68,49,45,37,31,63,36,17,29.88,29.76,11,2,17,0.00
2013-7-29,86,69,46,48,40,33,77,40,16,29.90,29.77,9,1,11,0.00
2013-7-30,87,70,48,52,40,27,77,40,13,30.00,29.90,6,2,9,0.00
2013-7-31,85,70,58,53,46,35,68,46,18,29.99,29.84,17,1,22,0.02
2013-8-1,75,63,53,56,51,45,88,67,45,29.99,29.85,17,4,23,0.05
2013-8-2,78,62,45,49,45,40,87,59,32,30.05,29.95,13,2,19,0.01
2013-8-3,86,68,46,49,43,33,87,48,15,30.05,29.89,9,2,13,0.00
2013-8-4,89,73,52,55,47,39,76,45,21,29.96,29.79,8,3,11,0.00
2013-8-5,91,75,55,55,49,38,77,44,16,29.90,29.77,10,2,15,0.00
2013-8-6,94,76,53,52,45,35,77,40,13,29.90,29.77,6,2,14,0.00
2013-8-7,89,74,54,49,43,37,62,35,17,29.89,29.80,17,3,20,0.00
2013-8-8,87,74,57,54,47,38,67,42,18,29.88,29.75,8,1,10,0.00
2013-8-9,88,71,59,57,51,43,84,52,22,29.86,29.68,14,2,14,0.10
2013-8-10,79,62,49,54,51,46,91,71,40,29.99,29.84,16,2,20,0.01
2013-8-11,82,67,51,54,49,45,88,58,30,30.01,29.87,10,2,12,0.00
2013-8-12,86,69,52,54,50,42,89,55,22,29.94,29.84,16,3,16,0.00
2013-8-13,90,72,50,52,48,43,84,48,20,29.99,29.82,8,2,10,0.00
2013-8-14,90,77,62,53,49,45,63,39,22,29.88,29.75,11,3,18,0.00
2013-8-15,89,72,53,57,50,44,75,49,24,29.88,29.77,11,2,17,0.00
2013-8-16,86,72,58,63,56,52,85,60,37,29.93,29.83,12,1,15,0.01
2013-8-17,87,71,56,58,54,49,89,59,28,29.97,29.85,12,2,15,0.00
2013-8-18,88,71,51,56,51,46,91,53,26,30.02,29.89,9,2,15,0.00
2013-8-19,88,72,52,53,50,45,80,49,26,29.99,29.86,11,4,15,0.00
2013-8-20,84,70,50,52,39,14,85,42,7,30.00,29.87,9,3,14,0.00
2013-8-21,86,70,51,46,39,34,54,35,18,29.97,29.83,8,2,12,0.00
2013-8-22,81,67,56,59,47,36,86,52,25,29.89,29.77,16,1,19,0.05
2013-8-23,82,68,55,54,51,44,87,59,28,29.84,29.73,13,3,18,0.00
2013-8-24,82,65,53,58,51,42,84,64,28,29.82,29.69,12,2,19,0.12
2013-8-25,72,61,56,58,54,52,90,80,61,29.83,29.76,17,0,17,0.00
2013-8-26,77,69,58,56,52,48,84,56,39,29.91,29.86,7,2,28,0.20
2013-8-27,83,66,47,57,51,45,93,64,32,29.92,29.70,7,2,11,0.09
2013-8-28,87,71,54,57,52,46,90,57,25,29.81,29.72,12,2,14,0.05
2013-8-29,84,69,59,57,55,51,87,63,33,29.98,29.78,16,2,22,0.01
2013-8-30,81,69,54,56,53,49,92,60,33,30.06,29.92,11,2,16,0.00
2013-8-31,85,70,52,58,54,50,93,61,34,29.98,29.76,10,3,15,0.00
2013-9-1,94,74,55,55,49,31,78,47,11,29.80,29.61,9,2,15,0.00
2013-9-2,84,69,55,56,52,46,83,58,28,29.82,29.68,9,2,14,0.00
2013-9-3,85,67,51,55,51,40,92,61,22,29.90,29.80,10,2,12,0.00
2013-9-4,86,66,49,54,50,42,91,61,22,29.94,29.82,10,2,14,0.00
2013-9-5,73,60,51,53,50,45,91,70,43,30.01,29.79,23,4,25,0.00
2013-9-6,69,59,51,54,50,45,92,71,52,30.09,30.00,14,4,18,0.14
2013-9-7,76,61,43,55,50,42,95,69,40,30.08,29.92,10,2,18,0.00
2013-9-8,76,64,48,54,50,46,92,64,39,30.03,29.95,9,2,14,0.00
2013-9-9,84,69,50,50,46,43,80,50,26,30.00,29.84,9,2,11,0.00
2013-9-10,86,70,51,52,47,42,73,47,24,29.92,29.80,11,2,16,0.00
2013-9-11,88,72,52,53,48,44,74,46,25,29.96,29.84,11,2,17,0.00
2013-9-12,90,79,61,54,48,38,58,35,23,29.91,29.76,8,2,12,0.00
2013-9-13,83,71,56,52,46,38,60,41,27,29.82,29.69,6,0,8,0.00
2013-9-14,88,72,53,54,50,44,80,49,26,29.78,29.62,11,2,13,0.00
2013-9-15,92,71,56,57,49,36,77,50,14,29.74,29.49,18,3,28,0.01
2013-9-16,72,60,47,50,47,43,89,65,41,29.86,29.74,11,3,14,0.00
2013-9-17,63,54,48,52,45,40,85,71,47,29.95,29.76,17,3,21,0.01
2013-9-18,68,56,46,43,40,36,83,59,33,30.05,29.95,10,3,14,0.00
2013-9-19,76,57,37,44,39,33,85,54,27,30.03,29.78,13,5,15,0.00
2013-9-20,77,58,39,50,40,33,85,55,24,29.79,29.53,16,3,19,0.04
2013-9-21,67,56,47,48,44,41,80,65,39,29.73,29.61,13,3,16,0.04
2013-9-22,66,52,42,50,42,38,90,71,42,29.84,29.68,16,4,21,0.02
2013-9-23,63,55,45,46,42,38,81,63,48,29.95,29.83,18,5,18,0.00
2013-9-24,54,50,44,46,43,38,93,78,62,29.92,29.81,13,3,17,0.13
2013-9-25,56,46,39,44,38,35,88,75,56,29.98,29.80,10,3,13,0.11
2013-9-26,58,44,32,45,36,31,94,75,50,30.16,29.98,11,2,14,0.05
2013-9-27,62,48,35,48,39,31,92,73,36,30.17,29.98,13,2,16,0.03
2013-9-28,65,56,46,52,48,43,90,75,54,29.99,29.52,23,8,27,0.15
2013-9-29,55,49,44,50,43,38,92,80,60,29.71,29.47,22,6,23,0.31
2013-9-30,57,48,42,49,38,33,90,67,52,29.99,29.58,23,11,28,0.21
2013-10-1,53,45,35,42,36,32,89,72,50,30.20,29.98,17,3,18,0.06
2013-10-2,51,40,29,38,33,27,93,79,54,30.20,30.06,13,3,13,0.05
2013-10-3,53,43,33,38,35,31,95,76,53,30.44,30.16,6,1,9,0.04
2013-10-4,60,42,28,38,25,-100,95,64,38,30.53,30.40,6,-63,10,0.00
2013-10-5,72,50,31,42,34,28,89,58,21,30.43,30.21,10,4,13,0.00
2013-10-6,77,55,34,42,34,29,85,50,20,30.23,29.96,10,2,11,0.00
2013-10-7,56,50,44,41,36,31,72,59,48,30.08,29.90,19,7,24,0.00
2013-10-8,52,40,37,38,22,-100,82,64,56,30.08,29.93,15,-92,19,0.00
2013-10-9,47,32,36,38,4,-100,88,61,69,30.07,29.98,8,-227,9,0.00
2013-10-10,59,50,34,38,36,32,92,60,43,30.05,29.93,10,2,13,0.00
2013-10-11,57,39,30,39,15,-100,92,58,48,30.12,30.04,7,-156,8,0.00
2013-10-12,50,36,34,40,12,-100,93,64,56,30.16,30.02,8,-184,10,0.00
2013-10-13,54,38,37,41,10,-100,89,58,54,30.31,30.15,7,-201,10,0.00
2013-10-14,56,37,28,39,7,-100,94,52,46,30.41,30.30,9,-193,12,0.01
2013-10-15,61,37,27,36,5,-100,88,46,35,30.41,30.17,8,-205,11,0.00
2013-10-16,59,39,31,37,7,-100,81,46,35,30.18,30.11,9,-183,16,0.00
2013-10-17,59,40,30,38,11,-100,88,51,39,30.27,30.19,8,-176,12,0.00
2013-10-18,61,39,30,41,9,-100,90,52,43,30.29,30.16,6,-200,8,0.00
2013-10-19,75,44,33,41,4,-100,86,37,21,30.19,30.05,11,-227,13,0.00
2013-10-20,68,43,34,40,8,-100,79,40,34,30.16,30.08,6,-204,9,0.00
2013-10-21,70,43,35,43,6,-100,83,41,34,30.17,30.07,8,-232,11,0.00
2013-10-22,67,41,36,44,4,-100,86,42,39,30.15,30.01,8,-252,9,0.00
2013-10-23,64,42,37,44,8,-100,88,48,42,30.09,30.00,8,-227,10,0.00
2013-10-24,64,40,33,46,8,-100,93,50,48,30.11,30.01,7,-237,10,0.00
2013-10-25,65,41,35,44,6,-100,90,46,40,30.23,30.11,7,-231,12,0.00
2013-10-26,61,39,32,42,6,-100,87,48,44,30.25,30.09,10,-237,13,0.00
2013-10-27,51,32,33,44,5,-100,100,65,66,30.10,29.72,15,-238,20,0.17
2013-10-28,42,26,32,41,-13,-100,96,45,56,29.98,29.76,21,-312,24,0.03
2013-10-29,46,35,25,27,22,-100,81,62,43,30.11,29.98,2,-12,4,0.00
2013-10-30,56,35,25,34,26,21,85,72,44,30.20,30.10,5,2,7,0.00
2013-11-12,62,51,40,48,44,38,92,76,59,30.40,30.31,5,0,9,0.01
2013-11-13,56,44,32,42,37,29,97,80,52,30.47,30.28,3,0,6,0.01
2013-11-14,43,35,27,33,29,24,91,79,63,30.28,30.09,6,1,7,0.00
2013-11-15,43,36,25,32,28,23,99,74,59,30.09,29.57,22,6,31,0.00
2013-11-16,44,41,38,33,31,29,81,69,58,29.85,29.51,20,10,25,0.00
2013-11-17,52,41,33,34,31,28,83,68,47,30.03,29.85,15,4,19,0.00
2013-11-18,50,42,32,39,32,27,81,68,51,30.02,29.80,9,3,19,0.00
2013-11-19,51,46,40,45,40,35,88,79,69,29.84,29.74,11,4,15,0.04
2013-11-20,39,31,21,36,17,2,87,58,36,30.46,29.84,13,7,18,0.00
2013-11-21,32,23,14,10,6,2,69,50,32,30.78,30.46,7,2,11,0.00
2013-11-22,32,20,7,15,9,1,79,63,46,30.84,30.74,7,2,10,0.00
2013-11-23,35,21,9,18,12,5,86,70,48,30.74,30.46,4,1,5,0.00
2013-11-24,44,27,12,24,17,8,84,66,43,30.46,30.34,7,2,10,0.00
2013-11-25,42,28,18,25,19,13,84,68,46,30.51,30.42,6,1,8,0.00
2013-11-26,42,28,19,26,20,14,85,73,49,30.44,30.26,3,0,5,0.00
2013-11-27,38,29,22,27,22,18,87,76,64,30.26,30.14,7,1,11,0.00
2013-11-28,42,28,17,28,22,14,92,79,55,30.31,30.21,5,1,6,0.00
2013-11-29,57,37,22,32,26,18,89,67,37,30.37,30.28,4,0,8,0.00
2013-11-30,58,46,37,38,33,26,79,61,40,30.37,30.23,8,1,11,0.00
2013-12-1,60,52,41,45,41,33,81,66,58,30.23,29.84,25,13,30,0.00
2013-12-2,47,38,28,42,31,20,91,78,53,29.98,29.76,20,6,28,0.32
2013-12-3,30,22,13,24,16,7,91,76,55,30.32,29.98,12,3,16,0.00
2013-12-4,21,14,4,11,6,0,87,73,57,30.44,30.32,6,1,7,0.00
2013-12-5,24,11,-1,12,4,-6,83,75,57,30.43,30.30,6,3,8,0.00
2013-12-6,13,11,9,11,8,5,92,87,83,30.33,30.12,12,5,16,0.00
2013-12-7,11,3,-13,8,-2,-17,88,79,55,30.59,30.18,15,5,20,0.00
2013-12-8,16,-2,-15,12,-6,-20,92,81,60,30.82,30.58,6,2,9,0.00
2013-12-9,28,14,0,21,8,-4,92,77,47,30.82,30.58,12,5,18,0.00
2013-12-10,30,20,11,22,15,6,89,81,71,30.59,30.50,5,1,6,0.00
2013-12-11,40,28,13,28,20,11,90,74,57,30.53,30.36,10,4,14,0.00
2013-12-12,43,35,28,26,23,17,74,60,47,30.36,30.17,11,3,15,0.00
2013-12-13,49,35,27,36,29,23,91,79,58,30.49,30.25,6,1,10,0.00
2013-12-14,47,38,28,32,29,25,91,71,49,30.51,30.43,13,6,15,0.00
2013-12-15,56,44,33,41,33,29,90,67,43,30.45,30.35,10,2,11,0.00
2013-12-16,54,37,26,36,29,23,92,75,43,30.48,30.35,8,1,10,0.00
2013-12-17,58,43,34,32,28,25,74,57,35,30.35,30.10,10,4,12,0.00
2013-12-18,44,38,32,34,30,26,84,74,66,30.10,29.93,9,2,12,0.01
2013-12-19,33,27,19,25,16,12,77,62,44,30.30,30.03,9,3,14,0.00
2013-12-20,44,33,21,38,25,12,85,74,57,30.23,29.89,16,6,20,0.01
2013-12-21,50,44,40,38,36,34,82,73,59,30.16,29.90,19,6,23,0.00
2013-12-22,52,45,38,39,36,34,85,72,57,30.33,30.15,11,3,15,0.00
2013-12-23,55,45,37,42,35,30,83,70,56,30.48,30.25,17,4,19,0.00
2013-12-24,48,35,25,34,29,23,94,79,54,30.58,30.48,9,1,10,0.00
2013-12-25,49,37,30,31,27,23,83,67,45,30.53,30.42,11,5,14,0.00
2013-12-26,58,40,30,32,28,25,80,63,34,30.42,30.28,10,3,15,0.00
2013-12-27,52,40,33,29,26,23,72,56,32,30.32,30.16,10,4,16,0.00
2013-12-28,44,32,24,29,25,20,88,74,48,30.53,30.31,5,1,9,0.00
2013-12-29,47,34,23,26,22,19,87,64,39,30.52,30.34,10,3,13,0.00
2013-12-30,49,41,34,30,26,24,71,57,40,30.34,30.20,10,3,12,0.00
2013-12-31,51,43,38,32,28,26,70,58,43,30.35,30.22,6,1,12,0.00
2014-1-1,50,36,26,35,29,22,89,76,54,30.42,30.33,5,1,8,0.00
2014-1-2,55,43,27,35,30,25,91,64,38,30.36,30.03,20,5,21,0.00